Tracking 19636 objects as of 25-May-2019
HD Live streaming from Space Station
objects crossing your sky now

TDRS 7

Track TDRS 7 now!
TDRS 7 is classified as:


NORAD ID: 23613
Int'l Code: 1995-035B
Perigee: 35,653.4 km
Apogee: 35,935.2 km
Inclination: 14.2 °
Period: 1,436.1 minutes
Semi major axis: 42165 km
RCS: 19.9526 m2 (large)
Launch date: July 13, 1995
Source: United States (US)
Launch site: AIR FORCE EASTERN TEST RANGE (AFETR)

Tracking and communications with space shuttle, other missions.
aabbcc
Your satellite tracking list
Your tracking list is empty




NASA's NSSDC Master Catalog

Two Line Element Set (TLE):
1 23613U 95035B   19144.63408462 -.00000205  00000-0  00000+0 0  9996
2 23613  14.2452   8.0285 0033426  22.4643 164.3035  1.00269822 87273
Source of the keplerian elements: AFSPC